When you browse on this site, cookies collect data to enhance your experience and personalize the content and advertising you see.
Visit our Privacy Policy to learn more. By continuing to use the site, you agree to this use of cookies and data.
  • In Romania
  • List of Countries
  • For 7 days
  • Water Temperature
  • Weather Map
  • Weather Widgets
  • user-avatar
    Login

    Hourly Weather Nasirijja

    Today, 28 February, Friday

    Time Temperature Precipitation Wind Pressure Humidity
    00:00 +17°C° 0 mm 3 mps 763 mmHg 45%
    01:00 +17°C° 0 mm 3 mps 763 mmHg 46%
    02:00 +17°C° 0 mm 3 mps 762 mmHg 48%
    03:00 +16°C° 0 mm 3 mps 762 mmHg 49%
    04:00 +16°C° 0 mm 3 mps 762 mmHg 50%
    05:00 +15°C° 0 mm 2 mps 762 mmHg 51%
    06:00 +15°C° 0 mm 2 mps 763 mmHg 52%
    07:00 +16°C° 0 mm 2 mps 763 mmHg 49%
    08:00 +17°C° 0 mm 3 mps 763 mmHg 45%
    09:00 +18°C° 0 mm 3 mps 763 mmHg 41%
    10:00 +19°C° 0 mm 3 mps 763 mmHg 38%
    11:00 +21°C° 0 mm 2 mps 763 mmHg 35%
    12:00 +23°C° 0 mm 2 mps 762 mmHg 31%
    13:00 +23°C° 0 mm 2 mps 762 mmHg 29%
    14:00 +24°C° 0 mm 3 mps 761 mmHg 27%
    15:00 +24°C° 0 mm 3 mps 761 mmHg 25%
    16:00 +24°C° 0 mm 2 mps 761 mmHg 27%
    17:00 +23°C° 0 mm 2 mps 761 mmHg 29%
    18:00 +23°C° 0 mm 2 mps 761 mmHg 31%
    19:00 +22°C° 0 mm 1 mps 761 mmHg 34%
    20:00 +21°C° 0 mm 1 mps 760 mmHg 36%
    21:00 +20°C° 0 mm 1 mps 760 mmHg 38%
    22:00 +20°C° 0 mm 1 mps 760 mmHg 40%
    23:00 +17°C° 0 mm 0 mps 760 mmHg 41%

    Tomorrow, 29 February, Saturday

    Time Temperature Precipitation Wind Pressure Humidity
    00:00 +17°C° 0 mm 0 mps 760 mmHg 42%
    01:00 +19°C° 0 mm 1 mps 759 mmHg 42%
    02:00 +18°C° 0 mm 1 mps 759 mmHg 42%
    03:00 +18°C° 0 mm 1 mps 758 mmHg 41%
    04:00 +18°C° 0 mm 1 mps 758 mmHg 43%
    05:00 +16°C° 0 mm 1 mps 759 mmHg 45%
    06:00 +16°C° 0 mm 2 mps 759 mmHg 46%
    07:00 +17°C° 0 mm 2 mps 759 mmHg 43%
    08:00 +19°C° 0 mm 2 mps 759 mmHg 39%
    09:00 +20°C° 0 mm 2 mps 759 mmHg 36%
    10:00 +21°C° 0 mm 3 mps 759 mmHg 32%
    11:00 +24°C° 0 mm 3 mps 758 mmHg 28%
    12:00 +25°C° 0 mm 3 mps 758 mmHg 24%
    13:00 +26°C° 0 mm 3 mps 757 mmHg 22%
    14:00 +26°C° 0 mm 4 mps 756 mmHg 21%
    15:00 +27°C° 0 mm 4 mps 755 mmHg 19%
    16:00 +26°C° 0 mm 4 mps 756 mmHg 21%
    17:00 +26°C° 0 mm 3 mps 756 mmHg 23%
    18:00 +25°C° 0 mm 3 mps 756 mmHg 26%
    19:00 +24°C° 0 mm 3 mps 756 mmHg 27%
    20:00 +23°C° 0 mm 4 mps 756 mmHg 29%
    21:00 +22°C° 0 mm 4 mps 756 mmHg 30%
    22:00 +21°C° 0 mm 4 mps 756 mmHg 33%
    23:00 +21°C° 0 mm 4 mps 756 mmHg 36%

    Day after tomorrow, 1 March, Sunday

    Time Temperature Precipitation Wind Pressure Humidity
    00:00 +20°C° 0 mm 3 mps 756 mmHg 38%
    01:00 +19°C° 0 mm 3 mps 756 mmHg 40%
    02:00 +19°C° 0 mm 3 mps 756 mmHg 41%
    03:00 +18°C° 0 mm 3 mps 755 mmHg 42%
    04:00 +18°C° 0 mm 3 mps 755 mmHg 44%
    05:00 +17°C° 0 mm 3 mps 755 mmHg 46%
    06:00 +17°C° 0 mm 3 mps 755 mmHg 48%
    07:00 +18°C° 0 mm 3 mps 756 mmHg 47%
    08:00 +19°C° 0 mm 3 mps 756 mmHg 46%
    09:00 +20°C° 0 mm 3 mps 756 mmHg 44%
    10:00 +21°C° 0 mm 3 mps 756 mmHg 41%
    11:00 +23°C° 0 mm 2 mps 756 mmHg 37%
    12:00 +24°C° 0 mm 2 mps 756 mmHg 34%
    13:00 +25°C° 0 mm 4 mps 755 mmHg 31%
    14:00 +26°C° 0 mm 6 mps 755 mmHg 29%
    15:00 +26°C° 0 mm 8 mps 755 mmHg 26%
    16:00 +24°C° 0 mm 8 mps 755 mmHg 29%
    17:00 +23°C° 0 mm 8 mps 756 mmHg 32%
    18:00 +22°C° 0 mm 8 mps 756 mmHg 35%
    19:00 +21°C° 0 mm 7 mps 757 mmHg 34%
    20:00 +21°C° 0 mm 7 mps 758 mmHg 33%
    21:00 +20°C° 0 mm 6 mps 759 mmHg 32%
    22:00 +19°C° 0 mm 5 mps 759 mmHg 35%
    23:00 +18°C° 0 mm 4 mps 760 mmHg 39%

    2 March, Monday

    Time Temperature Precipitation Wind Pressure Humidity
    00:00 +18°C° 0 mm 4 mps 760 mmHg 43%
    01:00 +17°C° 0 mm 4 mps 760 mmHg 44%
    02:00 +16°C° 0 mm 5 mps 760 mmHg 45%
    03:00 +15°C° 0 mm 5 mps 760 mmHg 46%
    04:00 +15°C° 0 mm 5 mps 760 mmHg 47%
    05:00 +14°C° 0 mm 4 mps 761 mmHg 48%
    06:00 +14°C° 0 mm 4 mps 761 mmHg 49%
    07:00 +15°C° 0 mm 4 mps 762 mmHg 47%
    08:00 +16°C° 0 mm 5 mps 762 mmHg 45%
    09:00 +17°C° 0 mm 6 mps 763 mmHg 43%
    10:00 +19°C° 0 mm 6 mps 763 mmHg 41%
    11:00 +20°C° 0 mm 6 mps 763 mmHg 40%
    12:00 +21°C° 0 mm 6 mps 763 mmHg 38%
    13:00 +21°C° 0 mm 6 mps 762 mmHg 37%
    14:00 +22°C° 0 mm 6 mps 762 mmHg 36%
    15:00 +22°C° 0 mm 7 mps 761 mmHg 34%
    16:00 +21°C° 0 mm 6 mps 762 mmHg 36%
    17:00 +21°C° 0 mm 5 mps 762 mmHg 38%
    18:00 +20°C° 0 mm 4 mps 762 mmHg 40%
    19:00 +20°C° 0 mm 4 mps 763 mmHg 42%
    20:00 +19°C° 0 mm 4 mps 763 mmHg 44%
    21:00 +18°C° 0 mm 4 mps 763 mmHg 46%
    22:00 +18°C° 0 mm 4 mps 764 mmHg 48%
    23:00 +17°C° 0 mm 4 mps 764 mmHg 50%

    3 March, Tuesday

    Time Temperature Precipitation Wind Pressure Humidity
    00:00 +17°C° 0 mm 4 mps 764 mmHg 51%
    01:00 +15°C° 0 mm 4 mps 764 mmHg 53%
    02:00 +15°C° 0 mm 4 mps 764 mmHg 54%
    03:00 +14°C° 0 mm 3 mps 764 mmHg 56%
    04:00 +14°C° 0 mm 3 mps 764 mmHg 57%
    05:00 +14°C° 0 mm 3 mps 764 mmHg 57%
    06:00 +13°C° 0 mm 3 mps 764 mmHg 58%
    07:00 +15°C° 0 mm 4 mps 764 mmHg 54%
    08:00 +16°C° 0 mm 5 mps 765 mmHg 49%
    09:00 +17°C° 0 mm 5 mps 765 mmHg 45%
    10:00 +19°C° 0 mm 6 mps 765 mmHg 40%
    11:00 +20°C° 0 mm 7 mps 765 mmHg 36%
    12:00 +22°C° 0 mm 7 mps 764 mmHg 31%
    13:00 +22°C° 0 mm 7 mps 764 mmHg 30%
    14:00 +22°C° 0 mm 8 mps 763 mmHg 29%
    15:00 +23°C° 0 mm 8 mps 763 mmHg 28%
    16:00 +22°C° 0 mm 7 mps 763 mmHg 29%
    17:00 +22°C° 0 mm 6 mps 763 mmHg 30%
    18:00 +21°C° 0 mm 5 mps 763 mmHg 30%
    19:00 +20°C° 0 mm 5 mps 763 mmHg 33%
    20:00 +20°C° 0 mm 5 mps 763 mmHg 36%
    21:00 +19°C° 0 mm 4 mps 764 mmHg 38%
    22:00 +17°C° 0 mm 5 mps 763 mmHg 40%
    23:00 +17°C° 0 mm 5 mps 763 mmHg 41%

    4 March, Wednesday

    Time Temperature Precipitation Wind Pressure Humidity
    00:00 +16°C° 0 mm 5 mps 763 mmHg 43%
    01:00 +16°C° 0 mm 5 mps 763 mmHg 44%
    02:00 +15°C° 0 mm 4 mps 762 mmHg 45%
    03:00 +15°C° 0 mm 4 mps 762 mmHg 45%
    04:00 +14°C° 0 mm 4 mps 762 mmHg 46%
    05:00 +14°C° 0 mm 4 mps 762 mmHg 47%
    06:00 +13°C° 0 mm 4 mps 762 mmHg 48%
    07:00 +15°C° 0 mm 5 mps 762 mmHg 44%
    08:00 +16°C° 0 mm 6 mps 763 mmHg 40%
    09:00 +18°C° 0 mm 7 mps 763 mmHg 36%
    10:00 +20°C° 0 mm 7 mps 763 mmHg 33%
    11:00 +21°C° 0 mm 8 mps 762 mmHg 30%
    12:00 +22°C° 0 mm 8 mps 762 mmHg 27%
    13:00 +23°C° 0 mm 8 mps 762 mmHg 26%
    14:00 +23°C° 0 mm 8 mps 761 mmHg 24%
    15:00 +24°C° 0 mm 8 mps 760 mmHg 23%
    16:00 +23°C° 0 mm 7 mps 760 mmHg 24%
    17:00 +23°C° 0 mm 6 mps 760 mmHg 25%
    18:00 +22°C° 0 mm 5 mps 760 mmHg 27%
    19:00 +21°C° 0 mm 5 mps 761 mmHg 29%
    20:00 +20°C° 0 mm 5 mps 761 mmHg 31%
    21:00 +19°C° 0 mm 5 mps 761 mmHg 33%
    22:00 +19°C° 0 mm 5 mps 761 mmHg 35%
    23:00 +17°C° 0 mm 5 mps 760 mmHg 37%
    Show more